Content
SEND FEEDBACK

Daily
Averages
Monthly
Summary
United Kingdom

BOVINGDON, ENGLAND


Home > Europe > United Kingdom > England
Elevation: 535 feet     Latitude: 51 43N     Longitude: 000 32W

WEATHER
 
SELECT A DAY
Number of Records: 293,773;   Date Range: 7/1/96 - 10/20/14
 
SHARE

PRINT THIS DATA

[ ← Previous Day ]
WEATHER ALMANAC - SEPTEMBER 25, 2013
[ Next Day → ]
[ °C ]   °F
Weather ElementAverageHighLow
Temperature58.5 °F66.2 °F (3:50 pm)53.6 °F (12:50 am)
Dewpoint57.4 °F62.6 °F (1:50 pm)53.6 °F (12:50 am)
Humidity96.3 %100 % (12:50 am)78 % (4:20 pm)
Barometer29.88 in29.95 in (1:20 am)29.83 in (5:20 pm)
Wind Speed3.2 mph9.2 mph (8:50 pm)
Weather ElementAverage
Visibility1 mi
Wind DirectionNE (46.8 °)

Weather ElementTotal
Precipitation---
Heating Degree Days5.1 (Base 65)
Growing Degree Days9.9 (Base 50)
Averaged from 47 records on September 25, 2013
WEATHER CONDITIONS BREAKOUT
WIND DIRECTION BREAKOUT
WEATHER BY HOUR - SEPTEMBER 25, 2013
[ °C ]   °F
Local TimeTemperatureDewpointHumidityBarometerVisibilityWind DirectionWind SpeedGust SpeedPrecipitationEventsConditions
12:50 AM53.6 °F53.6 °F100 %29.92 in0.6 miVariable3.5 mphFogFog
1:20 AM55.4 °F55.4 °F100 %29.95 in0.2 miESE (120°)4.6 mphFogFog
1:50 AM53.6 °F53.6 °F100 %29.92 in0.2 miVariable3.5 mphFogFog
2:20 AM55.4 °F55.4 °F100 %29.92 in0.1 miSE (140°)3.5 mphFogFog
2:50 AM55.4 °F55.4 °F100 %29.92 in0.1 miVariable2.3 mphFogFog
3:20 AM55.4 °F55.4 °F100 %29.89 in0.1 miSSE (150°)3.5 mphFogFog
3:50 AM55.4 °F55.4 °F100 %29.89 in0.1 miSSE (150°)3.5 mphFogFog
4:20 AM55.4 °F55.4 °F100 %29.89 in0.1 miSE (140°)3.5 mphFogFog
4:50 AM55.4 °F55.4 °F100 %29.89 in0.1 miVariable2.3 mphFogFog
5:20 AM55.4 °F55.4 °F100 %29.89 in0.1 miVariable2.3 mphFogFog
5:50 AM55.4 °F55.4 °F100 %29.89 in0.2 miCalmFogFog
6:20 AM55.4 °F55.4 °F100 %29.89 in0.2 miCalmFogFog
6:50 AM55.4 °F55.4 °F100 %29.89 in0.0 miEast (100°)3.5 mphFogFog
7:20 AM55.4 °F55.4 °F100 %29.89 in0.0 miVariable3.5 mphFogFog
7:50 AM55.4 °F55.4 °F100 %29.86 in0.0 miVariable3.5 mphFogFog
8:20 AM55.4 °F55.4 °F100 %29.86 in0.0 miVariable3.5 mphFogFog
8:50 AM55.4 °F55.4 °F100 %29.86 in0.0 miVariable3.5 mphFogFog
9:20 AM55.4 °F55.4 °F100 %29.86 in0.0 miCalmFogFog
9:50 AM57.2 °F57.2 °F100 %29.89 in0.0 miVariable3.5 mphFogFog
10:20 AM57.2 °F57.2 °F100 %29.86 in0.0 miVariable3.5 mphFogFog
10:50 AM57.2 °F57.2 °F100 %29.86 in0.1 miVariable2.3 mphFogFog
11:20 AM57.2 °F57.2 °F100 %29.89 in0.2 miVariable3.5 mphFogFog
11:50 AM59.0 °F59.0 °F100 %29.89 in0.7 miVariable3.5 mphOvercast
12:20 PM59.0 °F59.0 °F100 %29.89 in1.1 miVariable3.5 mphOvercast
12:50 PM60.8 °F60.8 °F100 %29.86 in1.2 miVariable2.3 mphOvercast
1:20 PM60.8 °F60.8 °F100 %29.86 in1.2 miCalmOvercast
1:50 PM62.6 °F62.6 °F100 %29.86 in1.6 miWSW (240°)4.6 mphOvercast
2:20 PM62.6 °F62.6 °F100 %29.86 in2.5 miWSW (240°)4.6 mphScattered Clouds
2:50 PM64.4 °F60.8 °F88 %29.86 inVariable3.5 mphHaze
3:20 PM64.4 °F60.8 °F88 %29.86 inVariable2.3 mphHaze
3:50 PM66.2 °F60.8 °F83 %29.86 inNNW (340°)4.6 mphHaze
4:20 PM66.2 °F59.0 °F78 %29.86 in3.7 miVariable3.5 mphPartly Cloudy
4:50 PM64.4 °F59.0 °F83 %29.86 in3.7 miNW (320°)4.6 mphPartly Cloudy
5:20 PM64.4 °F59.0 °F83 %29.83 in4.3 miVariable3.5 mphPartly Cloudy
5:50 PM64.4 °F59.0 °F83 %29.83 in3.7 miVariable2.3 mphPartly Cloudy
6:20 PM62.6 °F59.0 °F88 %29.86 in3.7 miNNE (30°)2.3 mph
6:50 PM62.6 °F59.0 °F88 %29.86 in3.1 miCalmMist
7:20 PM59.0 °F57.2 °F94 %29.86 inCalmMist
7:50 PM59.0 °F57.2 °F94 %29.89 inCalmScattered Clouds
8:20 PM60.8 °F59.0 °F94 %29.89 inNE (40°)3.5 mphScattered Clouds
8:50 PM60.8 °F59.0 °F94 %29.89 inNE (40°)9.2 mphHaze
9:20 PM59.0 °F57.2 °F94 %29.89 inNNE (30°)4.6 mphPartly Cloudy
9:50 PM59.0 °F57.2 °F94 %29.89 inNNE (30°)4.6 mphHaze
10:20 PM57.2 °F57.2 °F100 %29.89 inNNE (20°)4.6 mphScattered Clouds
10:50 PM57.2 °F57.2 °F100 %29.92 in1.7 miNorth (10°)4.6 mphMist
11:20 PM57.2 °F57.2 °F100 %29.92 in1.3 miNNE (30°)5.8 mphMostly Cloudy
11:50 PM55.4 °F55.4 °F100 %29.92 in1.0 miNNE (30°)4.6 mphPartly Cloudy
Hourly data recorded from EGGW, located miles away from Bovingdon, England







STORIES FROM OUR PARTNERS